This demonstration page uses our WeatherBlox Daily Observations layout. Learn more.

Left ArrowRight Arrow

39.08367, -84.50855

Hourly Observations for July 29, 2020

Temp ( °F °C ) Dew Point ( °F °C ) Humidity (%) Winds ( mph kmh ) Pressure ( in mb ) Visibility ( mi km ) Precip ( " mm )
12:53 am 00:53 Clear 67 19.4 64 17.8 91 91 N N/A 29.97 1015 10 16 N/A
1:53 am 01:53 Clear 66 18.9 64 17.8 93 93 N N/A 29.98 1015 10 16 N/A
2:53 am 02:53 Mostly Cloudy 67 19.4 64 17.8 91 91 N N/A 29.98 1015 10 16 N/A
3:53 am 03:53 Mostly Cloudy 66 18.9 64 17.8 93 93 N N/A 29.98 1015 10 16 N/A
4:53 am 04:53 Mostly Clear 66 18.9 64 17.8 93 93 NNE 3 6 29.97 1015 10 16 N/A
5:53 am 05:53 Mostly Clear 64 17.8 63 17.2 96 96 N N/A 29.98 1015 10 16 N/A
6:53 am 06:53 Mostly Cloudy 65 18.3 63 17.2 93 93 NNE 3 6 29.99 1016 10 16 N/A
7:53 am 07:53 Partly Cloudy 68 20 65 18.3 90 90 N N/A 30.00 1016 10 16 N/A
8:53 am 08:53 Sunny 73 22.8 68 20 84 84 N N/A 30.00 1016 10 16 N/A
9:53 am 09:53 Sunny 77 25 70 21.1 79 79 N N/A 30.00 1016 10 16 N/A
10:53 am 10:53 Sunny 82 27.8 67 19.4 60 60 SSW 5 7 29.99 1016 10 16 N/A
11:53 am 11:53 Sunny 84 28.9 66 18.9 55 55 SSE 6 9 29.99 1016 10 16 N/A
12:53 pm 12:53 Partly Cloudy 86 30 66 18.9 51 51 VRB 5 7 29.98 1015 10 16 N/A
1:53 pm 13:53 Partly Cloudy 87 30.6 67 19.4 51 51 SSE 5 7 29.96 1015 10 16 N/A
2:53 pm 14:53 Partly Cloudy 88 31.1 66 18.9 48 48 N N/A 29.94 1014 10 16 N/A
3:53 pm 15:53 Partly Cloudy 89 31.7 66 18.9 47 47 WSW 6 9 29.91 1013 10 16 N/A
4:53 pm 16:53 Partly Cloudy 89 31.7 67 19.4 48 48 S 5 7 29.90 1013 10 16 N/A
5:53 pm 17:53 Mostly Sunny 88 31.1 66 18.9 48 48 SW 8 13 29.89 1012 10 16 N/A
6:53 pm 18:53 Sunny 87 30.6 66 18.9 50 50 SSW 7 11 29.89 1012 10 16 N/A
7:53 pm 19:53 Sunny 84 28.9 66 18.9 55 55 SW 5 7 29.89 1012 10 16 N/A
8:53 pm 20:53 Clear 77 25 69 20.6 77 77 N N/A 29.91 1013 10 16 N/A
9:17 pm 21:17 Mostly Clear 77 25 69 20.6 77 77 N N/A 29.91 1013 10 16 N/A
9:53 pm 21:53 Clear 76 24.4 67 19.4 74 74 N N/A 29.92 1013 10 16 N/A
10:53 pm 22:53 Clear 73 22.8 67 19.4 81 81 N N/A 29.93 1014 10 16 N/A
11:53 pm 23:53 Clear 73 22.8 68 20 84 84 N N/A 29.93 1014 10 16 N/A

Powered by AerisWeather